LY3FF-10 Weather Reports


time (UTC)temp
F
wind
direction
speed
knots
gust
knots
rain 1hr
in
rain 24hr
in
rain mn
in
humidity
%
barometer
mb
20260508125120 50 0.0 0.0 0.00 0.00 0.00 70 997.1
20260508121222 50 0.0 0.0 0.00 0.00 0.00 70 997.3
20260508103717 50 0.0 0.0 0.00 0.00 0.00 68 996.9
20260508101140 50 0.0 0.0 0.00 0.00 0.00 70 996.9
20260508095834 49 0.0 0.0 0.00 0.00 0.00 71 996.9
20260508090058 49 0.0 0.0 0.00 0.00 0.00 72 996.8
20260508084742 49 0.0 0.0 0.00 0.00 0.00 72 996.6
20260508083401 49 0.0 0.0 0.00 0.00 0.00 73 996.7
20260508080738 48 0.0 0.0 0.00 0.00 0.00 74 996.5
20260508075423 41 0.0 0.0 0.00 0.00 0.00 12 996.6
20260508073927 47 0.0 0.0 0.00 0.00 0.00 76 996.4
20260508072607 47 0.0 0.0 0.00 0.00 0.00 76 996.3
20260508064548 47 0.0 0.0 0.00 0.00 0.00 79 996.0
20260508054924 46 0.0 0.0 0.00 0.00 0.00 81 995.9
20260508053605 46 0.0 0.0 0.00 0.00 0.00 82 996.0
20260508051028 46 0.0 0.0 0.00 0.00 0.00 83 995.8
20260508045817 46 0.0 0.0 0.00 0.00 0.00 83 995.8
20260508043047 46 0.0 0.0 0.00 0.00 0.00 83 995.6
20260508040304 46 0.0 0.0 0.00 0.00 0.00 83 995.3
20260508035002 46 0.0 0.0 0.00 0.00 0.00 83 995.2
20260508030920 46 0.0 0.0 0.00 0.00 0.00 83 995.0
20260508022916 46 0.0 0.0 0.00 0.00 0.00 83 994.8
20260508021657 46 0.0 0.0 0.00 0.00 0.00 83 994.8
20260508014912 46 0.0 0.0 0.00 0.00 0.00 83 994.6
20260508013632 46 0.0 0.0 0.00 0.00 0.00 82 994.5
20260508012405 47 0.0 0.0 0.00 0.00 0.00 82 994.6
20260508005629 47 0.0 0.0 0.00 0.00 0.00 81 994.7
20260508004218 48 0.0 0.0 0.00 0.00 0.00 81 994.7
20260508001457 48 0.0 0.0 0.00 0.00 0.00 81 994.6
20260508000131 48 0.0 0.0 0.00 0.00 0.00 81 994.5
20260507232010 48 0.0 0.0 0.00 0.00 0.00 80 994.3
20260507225432 49 0.0 0.0 0.00 0.00 0.00 80 994.2
20260507224014 49 0.0 0.0 0.00 0.00 0.00 80 994.1
20260507221415 49 0.0 0.0 0.00 0.00 0.00 80 994.1
20260507213449 49 0.0 0.0 0.00 0.00 0.00 80 993.8
20260507210842 49 0.0 0.0 0.00 0.00 0.00 79 993.7
20260507205451 49 0.0 0.0 0.00 0.00 0.00 80 993.5
20260507201301 49 0.0 0.0 0.00 0.00 0.00 79 993.1
20260507194607 50 0.0 0.0 0.00 0.00 0.00 79 993.1
20260507193343 49 0.0 0.0 0.00 0.00 0.00 79 992.9
20260507192124 50 0.0 0.0 0.00 0.00 0.00 79 992.7
20260507190712 50 0.0 0.0 0.00 0.00 0.00 79 992.5
20260507185350 50 0.0 0.0 0.00 0.00 0.00 79 992.5
20260507181129 51 0.0 0.0 0.00 0.00 0.00 80 992.1
20260507175632 51 0.0 0.0 0.00 0.00 0.00 80 992.2
20260507171739 52 0.0 0.0 0.00 0.00 0.00 81 991.7
20260507170424 52 0.0 0.0 0.00 0.00 0.00 80 991.4
20260507165127 52 0.0 0.0 0.00 0.00 0.00 79 991.3
20260507155913 56 0.0 0.0 0.00 0.00 0.00 80 991.1
20260507154637 56 0.0 0.0 0.00 0.00 0.00 79 991.1
20260507151959 55 0.0 0.0 0.00 0.00 0.00 77 990.7
20260507150709 58 0.0 0.0 0.00 0.00 0.00 75 990.6
20260507145316 58 0.0 0.0 0.00 0.00 0.00 73 990.6
20260507144027 59 0.0 0.0 0.00 0.00 0.00 71 990.3
20260507142749 61 0.0 0.0 0.00 0.00 0.00 70 990.0
20260507134957 66 0.0 0.0 0.00 0.00 0.00 67 989.6
20260507132308 64 0.0 0.0 0.00 0.00 0.00 67 989.2